Time,TemperatureF,DewpointF,PressureIn,WindDirection,WindDirectionDegrees,WindSpeedMPH,WindSpeedGustMPH,Humidity,HourlyPrecipIn,Conditions,Clouds,dailyrainin,SoftwareType,DateUTC
2013-05-23 00:00:00,72.5,65.6,29.89,North,360,0.0,0.0,79,0.00,,,0.00,Wunderground v.1.15,2013-05-23 04:00:00,
2013-05-23 00:02:00,72.6,65.7,29.89,North,360,0.0,0.0,79,0.00,,,0.00,Wunderground v.1.15,2013-05-23 04:02:00,
2013-05-23 00:04:00,72.7,65.8,29.89,North,360,0.0,0.0,79,0.00,,,0.00,Wunderground v.1.15,2013-05-23 04:04:00,
2013-05-23 00:06:00,72.8,65.9,29.90,North,360,0.0,2.0,79,0.00,,,0.00,Wunderground v.1.15,2013-05-23 04:06:00,
2013-05-23 00:10:00,73.0,65.7,29.90,North,360,2.0,5.0,78,0.00,,,0.00,Wunderground v.1.15,2013-05-23 04:10:00,
2013-05-23 00:12:00,73.1,65.8,29.90,North,360,3.0,5.0,78,0.00,,,0.00,Wunderground v.1.15,2013-05-23 04:12:00,
2013-05-23 00:16:00,73.2,65.9,29.90,North,360,3.0,5.0,78,0.00,,,0.00,Wunderground v.1.15,2013-05-23 04:16:00,
2013-05-23 00:18:00,73.2,66.3,29.90,North,360,3.0,6.0,79,0.00,,,0.00,Wunderground v.1.15,2013-05-23 04:18:00,
2013-05-23 00:20:00,73.1,66.2,29.90,North,360,3.0,4.0,79,0.00,,,0.00,Wunderground v.1.15,2013-05-23 04:20:00,
2013-05-23 00:24:00,73.0,66.5,29.89,North,360,3.0,4.0,80,0.00,,,0.01,Wunderground v.1.15,2013-05-23 04:24:00,
2013-05-23 00:26:00,73.0,66.5,29.89,North,360,3.0,4.0,80,0.00,,,0.01,Wunderground v.1.15,2013-05-23 04:26:00,
2013-05-23 00:28:00,73.1,66.6,29.89,North,360,2.0,4.0,80,0.00,,,0.01,Wunderground v.1.15,2013-05-23 04:28:00,
2013-05-23 00:34:00,73.0,66.8,29.89,North,360,0.0,2.0,81,0.00,,,0.01,Wunderground v.1.15,2013-05-23 04:34:00,
2013-05-23 00:36:00,73.0,66.8,29.89,North,360,1.0,4.0,81,0.00,,,0.01,Wunderground v.1.15,2013-05-23 04:36:00,
2013-05-23 00:38:00,73.0,66.8,29.89,North,360,2.0,5.0,81,0.00,,,0.01,Wunderground v.1.15,2013-05-23 04:38:00,
2013-05-23 00:44:00,72.9,66.7,29.88,North,360,2.0,3.0,81,0.00,,,0.01,Wunderground v.1.15,2013-05-23 04:44:00,
2013-05-23 00:46:00,72.7,66.5,29.88,North,360,2.0,3.0,81,0.00,,,0.01,Wunderground v.1.15,2013-05-23 04:46:00,
2013-05-23 00:52:00,72.5,66.7,29.88,North,360,2.0,3.0,82,0.00,,,0.01,Wunderground v.1.15,2013-05-23 04:52:00,
2013-05-23 00:54:00,72.5,66.7,29.88,North,360,3.0,4.0,82,0.00,,,0.01,Wunderground v.1.15,2013-05-23 04:54:00,
2013-05-23 00:56:00,72.4,66.6,29.87,North,360,3.0,4.0,82,0.00,,,0.01,Wunderground v.1.15,2013-05-23 04:56:00,
2013-05-23 01:00:00,72.4,66.9,29.87,North,360,3.0,4.0,83,0.00,,,0.01,Wunderground v.1.15,2013-05-23 05:00:00,
2013-05-23 01:02:00,72.4,66.9,29.87,North,360,4.0,4.0,83,0.00,,,0.01,Wunderground v.1.15,2013-05-23 05:02:00,
2013-05-23 01:06:00,72.3,66.8,29.87,North,360,3.0,4.0,83,0.00,,,0.01,Wunderground v.1.15,2013-05-23 05:06:00,
2013-05-23 01:08:00,72.3,66.8,29.87,North,360,3.0,4.0,83,0.00,,,0.01,Wunderground v.1.15,2013-05-23 05:08:00,
2013-05-23 01:12:00,72.4,66.9,29.87,North,360,2.0,2.0,83,0.00,,,0.01,Wunderground v.1.15,2013-05-23 05:12:00,
2013-05-23 01:14:00,72.4,66.9,29.87,North,360,1.0,2.0,83,0.00,,,0.01,Wunderground v.1.15,2013-05-23 05:14:00,
2013-05-23 01:16:00,72.4,66.9,29.87,North,360,1.0,2.0,83,0.00,,,0.01,Wunderground v.1.15,2013-05-23 05:16:00,
2013-05-23 01:18:00,72.4,66.9,29.86,North,360,1.0,2.0,83,0.00,,,0.01,Wunderground v.1.15,2013-05-23 05:18:00,
2013-05-23 01:22:00,72.4,66.9,29.86,North,360,1.0,2.0,83,0.00,,,0.01,Wunderground v.1.15,2013-05-23 05:22:00,
2013-05-23 01:24:00,72.3,66.8,29.86,North,360,1.0,2.0,83,0.00,,,0.01,Wunderground v.1.15,2013-05-23 05:24:00,
2013-05-23 01:26:00,72.2,66.7,29.86,North,360,1.0,2.0,83,0.00,,,0.01,Wunderground v.1.15,2013-05-23 05:26:00,
2013-05-23 01:28:00,72.1,66.6,29.86,North,360,1.0,2.0,83,0.00,,,0.01,Wunderground v.1.15,2013-05-23 05:28:00,
2013-05-23 01:30:00,72.1,67.0,29.86,North,360,1.0,1.0,84,0.00,,,0.01,Wunderground v.1.15,2013-05-23 05:30:00,
2013-05-23 01:34:00,72.0,66.9,29.86,North,360,0.0,1.0,84,0.00,,,0.01,Wunderground v.1.15,2013-05-23 05:34:00,
2013-05-23 01:36:00,71.9,66.8,29.86,North,360,0.0,1.0,84,0.00,,,0.01,Wunderground v.1.15,2013-05-23 05:36:00,
2013-05-23 01:40:00,71.9,66.8,29.86,North,360,0.0,0.0,84,0.00,,,0.01,Wunderground v.1.15,2013-05-23 05:40:00,
2013-05-23 01:42:00,71.9,66.8,29.86,North,360,0.0,0.0,84,0.00,,,0.01,Wunderground v.1.15,2013-05-23 05:42:00,
2013-05-23 01:46:00,71.9,66.8,29.86,North,360,0.0,2.0,84,0.00,,,0.01,Wunderground v.1.15,2013-05-23 05:46:00,
2013-05-23 01:48:00,71.9,66.8,29.86,North,360,0.0,2.0,84,0.00,,,0.01,Wunderground v.1.15,2013-05-23 05:48:00,
2013-05-23 01:52:00,71.9,67.1,29.85,North,360,1.0,2.0,85,0.00,,,0.01,Wunderground v.1.15,2013-05-23 05:52:00,
2013-05-23 01:54:00,71.9,67.1,29.86,North,360,1.0,3.0,85,0.00,,,0.01,Wunderground v.1.15,2013-05-23 05:54:00,
2013-05-23 01:56:00,71.9,67.1,29.86,North,360,1.0,3.0,85,0.00,,,0.01,Wunderground v.1.15,2013-05-23 05:56:00,
2013-05-23 02:00:00,72.0,67.2,29.86,North,360,1.0,3.0,85,0.00,,,0.01,Wunderground v.1.15,2013-05-23 06:00:00,
2013-05-23 02:02:00,72.0,66.9,29.85,North,360,1.0,4.0,84,0.00,,,0.01,Wunderground v.1.15,2013-05-23 06:02:00,
2013-05-23 02:04:00,72.0,67.2,29.85,North,360,2.0,4.0,85,0.00,,,0.01,Wunderground v.1.15,2013-05-23 06:04:00,
2013-05-23 02:08:00,72.0,67.2,29.86,North,360,3.0,4.0,85,0.00,,,0.01,Wunderground v.1.15,2013-05-23 06:08:00,
2013-05-23 02:10:00,72.0,67.2,29.86,North,360,3.0,3.0,85,0.00,,,0.01,Wunderground v.1.15,2013-05-23 06:10:00,
2013-05-23 02:14:00,72.0,67.2,29.85,North,360,3.0,3.0,85,0.00,,,0.01,Wunderground v.1.15,2013-05-23 06:14:00,
2013-05-23 02:16:00,72.0,67.2,29.85,North,360,2.0,3.0,85,0.00,,,0.01,Wunderground v.1.15,2013-05-23 06:16:00,
2013-05-23 02:18:00,72.0,67.2,29.85,North,360,3.0,3.0,85,0.00,,,0.01,Wunderground v.1.15,2013-05-23 06:18:00,
2013-05-23 02:22:00,72.0,67.6,29.85,North,360,2.0,4.0,86,0.00,,,0.01,Wunderground v.1.15,2013-05-23 06:22:00,
2013-05-23 02:24:00,72.0,67.6,29.85,North,360,2.0,4.0,86,0.00,,,0.01,Wunderground v.1.15,2013-05-23 06:24:00,
2013-05-23 02:26:00,72.0,67.6,29.85,North,360,2.0,4.0,86,0.00,,,0.01,Wunderground v.1.15,2013-05-23 06:26:00,
2013-05-23 02:28:00,72.0,67.6,29.85,North,360,2.0,4.0,86,0.00,,,0.01,Wunderground v.1.15,2013-05-23 06:28:00,
2013-05-23 02:32:00,72.0,67.6,29.85,North,360,1.0,3.0,86,0.00,,,0.01,Wunderground v.1.15,2013-05-23 06:32:00,
2013-05-23 02:34:00,72.0,67.6,29.85,North,360,1.0,4.0,86,0.00,,,0.01,Wunderground v.1.15,2013-05-23 06:34:00,
2013-05-23 02:36:00,72.0,67.6,29.85,North,360,2.0,6.0,86,0.00,,,0.01,Wunderground v.1.15,2013-05-23 06:36:00,
2013-05-23 02:38:00,72.0,67.6,29.85,North,360,3.0,6.0,86,0.00,,,0.01,Wunderground v.1.15,2013-05-23 06:38:00,
2013-05-23 02:42:00,72.0,67.6,29.85,North,360,4.0,5.0,86,0.00,,,0.01,Wunderground v.1.15,2013-05-23 06:42:00,
2013-05-23 02:44:00,71.9,67.5,29.85,North,360,4.0,5.0,86,0.00,,,0.01,Wunderground v.1.15,2013-05-23 06:44:00,
2013-05-23 02:48:00,71.9,67.8,29.85,North,360,4.0,5.0,87,0.00,,,0.01,Wunderground v.1.15,2013-05-23 06:48:00,
2013-05-23 02:50:00,71.9,67.8,29.85,North,360,5.0,10.0,87,0.00,,,0.01,Wunderground v.1.15,2013-05-23 06:50:00,
2013-05-23 02:54:00,71.8,68.1,29.85,North,360,6.0,10.0,88,0.00,,,0.01,Wunderground v.1.15,2013-05-23 06:54:00,
2013-05-23 02:58:00,71.8,68.1,29.85,North,360,6.0,10.0,88,0.00,,,0.01,Wunderground v.1.15,2013-05-23 06:58:00,
2013-05-23 03:00:00,71.8,68.1,29.85,North,360,5.0,6.0,88,0.00,,,0.01,Wunderground v.1.15,2013-05-23 07:00:00,
2013-05-23 03:02:00,71.7,68.0,29.85,North,360,5.0,6.0,88,0.00,,,0.01,Wunderground v.1.15,2013-05-23 07:02:00,
2013-05-23 03:06:00,71.7,68.0,29.85,North,360,5.0,10.0,88,0.00,,,0.01,Wunderground v.1.15,2013-05-23 07:06:00,
2013-05-23 03:08:00,71.7,68.0,29.85,North,360,5.0,10.0,88,0.00,,,0.01,Wunderground v.1.15,2013-05-23 07:08:00,
2013-05-23 03:12:00,71.7,68.0,29.85,North,360,4.0,4.0,88,0.00,,,0.01,Wunderground v.1.15,2013-05-23 07:12:00,
2013-05-23 03:14:00,71.7,68.0,29.85,North,360,3.0,5.0,88,0.00,,,0.01,Wunderground v.1.15,2013-05-23 07:14:00,
2013-05-23 03:16:00,71.7,68.0,29.85,North,360,4.0,7.0,88,0.00,,,0.01,Wunderground v.1.15,2013-05-23 07:16:00,
2013-05-23 03:18:00,71.7,68.3,29.85,North,360,3.0,7.0,89,0.00,,,0.01,Wunderground v.1.15,2013-05-23 07:18:00,
2013-05-23 03:22:00,71.6,68.2,29.85,North,360,4.0,6.0,89,0.00,,,0.01,Wunderground v.1.15,2013-05-23 07:22:00,
2013-05-23 03:24:00,71.6,68.2,29.85,North,360,4.0,6.0,89,0.00,,,0.01,Wunderground v.1.15,2013-05-23 07:24:00,
2013-05-23 03:26:00,71.6,68.2,29.85,North,360,4.0,6.0,89,0.00,,,0.01,Wunderground v.1.15,2013-05-23 07:26:00,
2013-05-23 03:30:00,71.5,68.1,29.85,North,360,5.0,5.0,89,0.00,,,0.01,Wunderground v.1.15,2013-05-23 07:30:00,
2013-05-23 03:32:00,71.5,68.1,29.85,North,360,4.0,5.0,89,0.00,,,0.01,Wunderground v.1.15,2013-05-23 07:32:00,
2013-05-23 03:38:00,71.5,68.1,29.85,North,360,5.0,7.0,89,0.00,,,0.01,Wunderground v.1.15,2013-05-23 07:38:00,
2013-05-23 03:40:00,71.5,68.4,29.85,North,360,5.0,5.0,90,0.00,,,0.01,Wunderground v.1.15,2013-05-23 07:40:00,
2013-05-23 03:42:00,71.5,68.1,29.85,North,360,5.0,5.0,89,0.00,,,0.01,Wunderground v.1.15,2013-05-23 07:42:00,
2013-05-23 03:46:00,71.6,68.5,29.85,North,360,5.0,10.0,90,0.00,,,0.01,Wunderground v.1.15,2013-05-23 07:46:00,
2013-05-23 03:48:00,71.6,68.2,29.85,North,360,5.0,10.0,89,0.00,,,0.01,Wunderground v.1.15,2013-05-23 07:48:00,
2013-05-23 03:50:00,71.6,68.2,29.85,North,360,5.0,5.0,89,0.00,,,0.01,Wunderground v.1.15,2013-05-23 07:50:00,
2013-05-23 03:56:00,71.6,68.2,29.86,North,360,6.0,11.0,89,0.00,,,0.01,Wunderground v.1.15,2013-05-23 07:56:00,
2013-05-23 04:00:00,71.7,68.3,29.86,North,360,6.0,6.0,89,0.00,,,0.01,Wunderground v.1.15,2013-05-23 08:00:00,
2013-05-23 04:02:00,71.7,68.3,29.86,North,360,6.0,6.0,89,0.00,,,0.01,Wunderground v.1.15,2013-05-23 08:02:00,
2013-05-23 04:08:00,71.8,68.4,29.86,North,360,6.0,10.0,89,0.00,,,0.01,Wunderground v.1.15,2013-05-23 08:08:00,
2013-05-23 04:10:00,71.9,68.5,29.86,North,360,6.0,6.0,89,0.00,,,0.01,Wunderground v.1.15,2013-05-23 08:10:00,
2013-05-23 04:12:00,71.9,68.5,29.86,North,360,6.0,6.0,89,0.00,,,0.01,Wunderground v.1.15,2013-05-23 08:12:00,
2013-05-23 04:16:00,71.9,68.5,29.86,North,360,7.0,12.0,89,0.00,,,0.01,Wunderground v.1.15,2013-05-23 08:16:00,
2013-05-23 04:18:00,71.9,68.5,29.86,North,360,7.0,12.0,89,0.00,,,0.01,Wunderground v.1.15,2013-05-23 08:18:00,
2013-05-23 04:20:00,72.0,68.6,29.86,North,360,7.0,8.0,89,0.00,,,0.01,Wunderground v.1.15,2013-05-23 08:20:00,
2013-05-23 04:24:00,72.0,68.2,29.86,North,360,8.0,9.0,88,0.00,,,0.01,Wunderground v.1.15,2013-05-23 08:24:00,
2013-05-23 04:28:00,72.0,68.2,29.86,North,360,8.0,9.0,88,0.00,,,0.01,Wunderground v.1.15,2013-05-23 08:28:00,
2013-05-23 04:30:00,72.0,68.2,29.86,North,360,7.0,9.0,88,0.00,,,0.01,Wunderground v.1.15,2013-05-23 08:30:00,
2013-05-23 04:34:00,72.0,68.2,29.86,North,360,6.0,12.0,88,0.00,,,0.01,Wunderground v.1.15,2013-05-23 08:34:00,
2013-05-23 04:36:00,72.0,68.2,29.87,North,360,6.0,12.0,88,0.00,,,0.01,Wunderground v.1.15,2013-05-23 08:36:00,
2013-05-23 04:38:00,72.0,68.2,29.87,North,360,6.0,12.0,88,0.00,,,0.01,Wunderground v.1.15,2013-05-23 08:38:00,
2013-05-23 04:40:00,72.0,68.2,29.87,North,360,6.0,6.0,88,0.00,,,0.01,Wunderground v.1.15,2013-05-23 08:40:00,
2013-05-23 04:42:00,71.9,68.2,29.86,North,360,6.0,6.0,88,0.00,,,0.01,Wunderground v.1.15,2013-05-23 08:42:00,
2013-05-23 04:44:00,71.9,68.2,29.86,North,360,7.0,7.0,88,0.00,,,0.01,Wunderground v.1.15,2013-05-23 08:44:00,
2013-05-23 04:46:00,71.9,68.2,29.86,North,360,7.0,7.0,88,0.00,,,0.01,Wunderground v.1.15,2013-05-23 08:46:00,
2013-05-23 04:48:00,71.8,68.1,29.86,North,360,6.0,7.0,88,0.00,,,0.01,Wunderground v.1.15,2013-05-23 08:48:00,
2013-05-23 04:50:00,71.8,68.1,29.86,North,360,7.0,8.0,88,0.00,,,0.01,Wunderground v.1.15,2013-05-23 08:50:00,
2013-05-23 04:52:00,71.8,68.1,29.86,North,360,7.0,17.0,88,0.00,,,0.01,Wunderground v.1.15,2013-05-23 08:52:00,
2013-05-23 04:54:00,71.7,68.0,29.86,North,360,7.0,17.0,88,0.00,,,0.01,Wunderground v.1.15,2013-05-23 08:54:00,
2013-05-23 04:58:00,71.8,68.1,29.86,North,360,8.0,17.0,88,0.00,,,0.01,Wunderground v.1.15,2013-05-23 08:58:00,
2013-05-23 05:04:00,71.8,68.1,29.86,North,360,7.0,9.0,88,0.00,,,0.01,Wunderground v.1.15,2013-05-23 09:04:00,
2013-05-23 05:06:00,71.7,68.0,29.86,North,360,5.0,9.0,88,0.00,,,0.01,Wunderground v.1.15,2013-05-23 09:06:00,
2013-05-23 05:12:00,71.7,68.0,29.86,North,360,5.0,5.0,88,0.00,,,0.01,Wunderground v.1.15,2013-05-23 09:12:00,
2013-05-23 05:14:00,71.7,68.0,29.86,North,360,5.0,6.0,88,0.00,,,0.01,Wunderground v.1.15,2013-05-23 09:14:00,
2013-05-23 05:16:00,71.6,67.9,29.86,North,360,6.0,8.0,88,0.00,,,0.01,Wunderground v.1.15,2013-05-23 09:16:00,
2013-05-23 05:18:00,71.6,68.2,29.86,North,360,6.0,8.0,89,0.00,,,0.01,Wunderground v.1.15,2013-05-23 09:18:00,
2013-05-23 05:20:00,71.6,68.2,29.86,North,360,7.0,7.0,89,0.00,,,0.01,Wunderground v.1.15,2013-05-23 09:20:00,
2013-05-23 05:24:00,71.6,68.2,29.86,North,360,7.0,7.0,89,0.00,,,0.01,Wunderground v.1.15,2013-05-23 09:24:00,
2013-05-23 05:30:00,71.6,68.2,29.87,North,360,6.0,8.0,89,0.00,,,0.01,Wunderground v.1.15,2013-05-23 09:30:00,
2013-05-23 05:32:00,71.6,68.2,29.86,North,360,6.0,8.0,89,0.00,,,0.01,Wunderground v.1.15,2013-05-23 09:32:00,
2013-05-23 05:36:00,71.5,68.1,29.86,North,360,6.0,8.0,89,0.00,,,0.01,Wunderground v.1.15,2013-05-23 09:36:00,
2013-05-23 05:38:00,71.5,68.1,29.86,North,360,6.0,8.0,89,0.00,,,0.01,Wunderground v.1.15,2013-05-23 09:38:00,
2013-05-23 05:42:00,71.5,68.1,29.86,North,360,5.0,6.0,89,0.00,,,0.01,Wunderground v.1.15,2013-05-23 09:42:00,
2013-05-23 05:44:00,71.5,68.1,29.86,North,360,5.0,9.0,89,0.00,,,0.01,Wunderground v.1.15,2013-05-23 09:44:00,
2013-05-23 05:46:00,71.5,68.4,29.86,North,360,5.0,9.0,90,0.00,,,0.01,Wunderground v.1.15,2013-05-23 09:46:00,
2013-05-23 05:48:00,71.5,68.4,29.86,North,360,6.0,9.0,90,0.00,,,0.01,Wunderground v.1.15,2013-05-23 09:48:00,
2013-05-23 05:50:00,71.5,68.4,29.86,North,360,6.0,6.0,90,0.00,,,0.01,Wunderground v.1.15,2013-05-23 09:50:00,
2013-05-23 05:52:00,71.4,68.3,29.86,North,360,6.0,10.0,90,0.00,,,0.01,Wunderground v.1.15,2013-05-23 09:52:00,
2013-05-23 05:54:00,71.4,68.3,29.86,North,360,6.0,10.0,90,0.00,,,0.01,Wunderground v.1.15,2013-05-23 09:54:00,
2013-05-23 05:56:00,71.4,68.3,29.86,North,360,6.0,10.0,90,0.00,,,0.01,Wunderground v.1.15,2013-05-23 09:56:00,
2013-05-23 05:58:00,71.3,68.2,29.86,North,360,7.0,10.0,90,0.00,,,0.01,Wunderground v.1.15,2013-05-23 09:58:00,
2013-05-23 06:00:00,71.3,68.2,29.86,North,360,7.0,10.0,90,0.00,,,0.01,Wunderground v.1.15,2013-05-23 10:00:00,
2013-05-23 06:02:00,71.3,68.2,29.86,North,360,7.0,10.0,90,0.00,,,0.01,Wunderground v.1.15,2013-05-23 10:02:00,
2013-05-23 06:06:00,71.3,68.2,29.86,North,360,6.0,10.0,90,0.00,,,0.01,Wunderground v.1.15,2013-05-23 10:06:00,
2013-05-23 06:08:00,71.3,68.2,29.86,North,360,6.0,10.0,90,0.00,,,0.01,Wunderground v.1.15,2013-05-23 10:08:00,
2013-05-23 06:12:00,71.4,68.3,29.86,North,360,5.0,9.0,90,0.00,,,0.01,Wunderground v.1.15,2013-05-23 10:12:00,
2013-05-23 06:16:00,71.3,68.2,29.86,North,360,6.0,9.0,90,0.00,,,0.01,Wunderground v.1.15,2013-05-23 10:16:00,
2013-05-23 06:20:00,71.3,68.2,29.86,North,360,7.0,7.0,90,0.00,,,0.01,Wunderground v.1.15,2013-05-23 10:20:00,
2013-05-23 06:22:00,71.3,68.5,29.86,North,360,7.0,7.0,91,0.00,,,0.01,Wunderground v.1.15,2013-05-23 10:22:00,
2013-05-23 06:24:00,71.3,68.5,29.86,North,360,7.0,11.0,91,0.00,,,0.01,Wunderground v.1.15,2013-05-23 10:24:00,
2013-05-23 06:30:00,71.2,68.4,29.86,North,360,8.0,12.0,91,0.00,,,0.01,Wunderground v.1.15,2013-05-23 10:30:00,
2013-05-23 06:32:00,71.2,68.4,29.86,North,360,9.0,12.0,91,0.00,,,0.01,Wunderground v.1.15,2013-05-23 10:32:00,
2013-05-23 06:34:00,71.2,68.4,29.86,North,360,9.0,12.0,91,0.00,,,0.01,Wunderground v.1.15,2013-05-23 10:34:00,
2013-05-23 06:36:00,71.2,68.4,29.86,North,360,8.0,12.0,91,0.00,,,0.01,Wunderground v.1.15,2013-05-23 10:36:00,
2013-05-23 06:38:00,71.2,68.4,29.87,North,360,8.0,12.0,91,0.00,,,0.01,Wunderground v.1.15,2013-05-23 10:38:00,
2013-05-23 06:42:00,71.3,68.9,29.86,North,360,6.0,7.0,92,0.00,,,0.01,Wunderground v.1.15,2013-05-23 10:42:00,
2013-05-23 06:44:00,71.3,68.9,29.86,North,360,5.0,7.0,92,0.00,,,0.01,Wunderground v.1.15,2013-05-23 10:44:00,
2013-05-23 06:46:00,71.3,68.9,29.86,North,360,4.0,9.0,92,0.00,,,0.01,Wunderground v.1.15,2013-05-23 10:46:00,
2013-05-23 06:48:00,71.3,68.5,29.86,North,360,6.0,9.0,91,0.00,,,0.01,Wunderground v.1.15,2013-05-23 10:48:00,
2013-05-23 06:50:00,71.2,68.8,29.86,North,360,6.0,7.0,92,0.00,,,0.01,Wunderground v.1.15,2013-05-23 10:50:00,
2013-05-23 06:52:00,71.2,68.8,29.86,North,360,7.0,7.0,92,0.00,,,0.01,Wunderground v.1.15,2013-05-23 10:52:00,
2013-05-23 06:54:00,71.3,68.9,29.86,North,360,7.0,7.0,92,0.00,,,0.01,Wunderground v.1.15,2013-05-23 10:54:00,
2013-05-23 06:56:00,71.3,68.9,29.86,North,360,8.0,8.0,92,0.00,,,0.01,Wunderground v.1.15,2013-05-23 10:56:00,
2013-05-23 06:58:00,71.3,68.9,29.86,North,360,7.0,9.0,92,0.00,,,0.01,Wunderground v.1.15,2013-05-23 10:58:00,
2013-05-23 07:00:00,71.3,68.9,29.86,North,360,7.0,7.0,92,0.00,,,0.01,Wunderground v.1.15,2013-05-23 11:00:00,
2013-05-23 07:02:00,71.3,68.9,29.87,North,360,8.0,8.0,92,0.00,,,0.01,Wunderground v.1.15,2013-05-23 11:02:00,
2013-05-23 07:04:00,71.3,68.9,29.87,North,360,8.0,9.0,92,0.00,,,0.01,Wunderground v.1.15,2013-05-23 11:04:00,
2013-05-23 07:08:00,71.3,68.9,29.87,North,360,8.0,11.0,92,0.00,,,0.01,Wunderground v.1.15,2013-05-23 11:08:00,
2013-05-23 07:10:00,71.3,68.9,29.87,North,360,8.0,8.0,92,0.00,,,0.01,Wunderground v.1.15,2013-05-23 11:10:00,
2013-05-23 07:14:00,71.3,68.9,29.87,North,360,7.0,8.0,92,0.00,,,0.01,Wunderground v.1.15,2013-05-23 11:14:00,
2013-05-23 07:16:00,71.4,69.0,29.87,North,360,5.0,8.0,92,0.00,,,0.01,Wunderground v.1.15,2013-05-23 11:16:00,
2013-05-23 07:20:00,71.5,69.1,29.87,North,360,6.0,10.0,92,0.00,,,0.01,Wunderground v.1.15,2013-05-23 11:20:00,
2013-05-23 07:22:00,71.5,69.1,29.87,North,360,7.0,10.0,92,0.00,,,0.01,Wunderground v.1.15,2013-05-23 11:22:00,
2013-05-23 07:28:00,71.6,69.2,29.87,North,360,8.0,11.0,92,0.00,,,0.01,Wunderground v.1.15,2013-05-23 11:28:00,
2013-05-23 07:30:00,71.6,69.2,29.87,North,360,8.0,11.0,92,0.00,,,0.01,Wunderground v.1.15,2013-05-23 11:30:00,
2013-05-23 07:32:00,71.6,69.2,29.87,North,360,9.0,11.0,92,0.00,,,0.01,Wunderground v.1.15,2013-05-23 11:32:00,
2013-05-23 07:38:00,71.6,69.2,29.87,North,360,11.0,12.0,92,0.00,,,0.01,Wunderground v.1.15,2013-05-23 11:38:00,
2013-05-23 07:40:00,71.7,68.9,29.87,North,360,11.0,11.0,91,0.00,,,0.01,Wunderground v.1.15,2013-05-23 11:40:00,
2013-05-23 07:46:00,71.8,69.0,29.87,North,360,9.0,11.0,91,0.00,,,0.01,Wunderground v.1.15,2013-05-23 11:46:00,
2013-05-23 07:48:00,71.9,69.1,29.87,North,360,9.0,16.0,91,0.00,,,0.01,Wunderground v.1.15,2013-05-23 11:48:00,
2013-05-23 07:52:00,71.9,69.1,29.87,North,360,8.0,11.0,91,0.00,,,0.01,Wunderground v.1.15,2013-05-23 11:52:00,
2013-05-23 07:56:00,72.0,69.2,29.87,North,360,8.0,11.0,91,0.00,,,0.01,Wunderground v.1.15,2013-05-23 11:56:00,
2013-05-23 07:58:00,72.1,69.3,29.87,North,360,8.0,11.0,91,0.00,,,0.01,Wunderground v.1.15,2013-05-23 11:58:00,
2013-05-23 08:00:00,72.1,69.3,29.86,North,360,8.0,8.0,91,0.00,,,0.01,Wunderground v.1.15,2013-05-23 12:00:00,
2013-05-23 08:04:00,72.1,69.3,29.87,North,360,8.0,9.0,91,0.00,,,0.01,Wunderground v.1.15,2013-05-23 12:04:00,
2013-05-23 08:06:00,72.1,69.3,29.87,North,360,8.0,9.0,91,0.00,,,0.01,Wunderground v.1.15,2013-05-23 12:06:00,
2013-05-23 08:10:00,72.2,69.1,29.87,North,360,7.0,7.0,90,0.00,,,0.01,Wunderground v.1.15,2013-05-23 12:10:00,
2013-05-23 08:14:00,72.3,69.2,29.87,North,360,7.0,17.0,90,0.00,,,0.01,Wunderground v.1.15,2013-05-23 12:14:00,
2013-05-23 08:16:00,72.3,68.9,29.87,North,360,8.0,17.0,89,0.00,,,0.01,Wunderground v.1.15,2013-05-23 12:16:00,
2013-05-23 08:18:00,72.3,68.9,29.87,North,360,8.0,17.0,89,0.00,,,0.01,Wunderground v.1.15,2013-05-23 12:18:00,
2013-05-23 08:22:00,72.4,69.0,29.87,North,360,7.0,7.0,89,0.00,,,0.01,Wunderground v.1.15,2013-05-23 12:22:00,
2013-05-23 08:24:00,72.4,69.0,29.86,North,360,7.0,7.0,89,0.00,,,0.01,Wunderground v.1.15,2013-05-23 12:24:00,
2013-05-23 08:30:00,72.3,68.5,29.87,North,360,8.0,8.0,88,0.00,,,0.01,Wunderground v.1.15,2013-05-23 12:30:00,
2013-05-23 08:32:00,72.3,68.9,29.87,North,360,9.0,13.0,89,0.00,,,0.01,Wunderground v.1.15,2013-05-23 12:32:00,
2013-05-23 08:36:00,72.2,68.8,29.87,North,360,10.0,13.0,89,0.00,,,0.01,Wunderground v.1.15,2013-05-23 12:36:00,
2013-05-23 08:38:00,72.2,68.8,29.87,North,360,10.0,13.0,89,0.00,,,0.01,Wunderground v.1.15,2013-05-23 12:38:00,
2013-05-23 08:42:00,72.4,69.0,29.87,North,360,8.0,9.0,89,0.00,,,0.01,Wunderground v.1.15,2013-05-23 12:42:00,
2013-05-23 08:44:00,72.4,69.0,29.87,North,360,8.0,13.0,89,0.00,,,0.01,Wunderground v.1.15,2013-05-23 12:44:00,
2013-05-23 08:50:00,72.5,69.1,29.87,North,360,8.0,14.0,89,0.00,,,0.01,Wunderground v.1.15,2013-05-23 12:50:00,
2013-05-23 08:52:00,72.5,69.1,29.87,North,360,9.0,16.0,89,0.00,,,0.01,Wunderground v.1.15,2013-05-23 12:52:00,
2013-05-23 08:54:00,72.5,69.1,29.87,North,360,9.0,16.0,89,0.00,,,0.01,Wunderground v.1.15,2013-05-23 12:54:00,
2013-05-23 08:56:00,72.6,69.2,29.87,North,360,9.0,16.0,89,0.00,,,0.01,Wunderground v.1.15,2013-05-23 12:56:00,
2013-05-23 09:00:00,72.7,68.9,29.87,North,360,9.0,12.0,88,0.00,,,0.01,Wunderground v.1.15,2013-05-23 13:00:00,
2013-05-23 09:02:00,72.6,68.8,29.87,North,360,9.0,12.0,88,0.00,,,0.01,Wunderground v.1.15,2013-05-23 13:02:00,
2013-05-23 09:04:00,72.7,68.9,29.87,North,360,9.0,12.0,88,0.00,,,0.01,Wunderground v.1.15,2013-05-23 13:04:00,
2013-05-23 09:08:00,73.0,69.2,29.87,North,360,7.0,12.0,88,0.00,,,0.01,Wunderground v.1.15,2013-05-23 13:08:00,
2013-05-23 09:10:00,73.1,69.0,29.87,North,360,7.0,7.0,87,0.00,,,0.01,Wunderground v.1.15,2013-05-23 13:10:00,
2013-05-23 09:14:00,73.1,69.0,29.87,North,360,7.0,10.0,87,0.00,,,0.01,Wunderground v.1.15,2013-05-23 13:14:00,
2013-05-23 09:16:00,73.2,69.1,29.88,North,360,7.0,14.0,87,0.00,,,0.01,Wunderground v.1.15,2013-05-23 13:16:00,
2013-05-23 09:18:00,73.3,69.2,29.88,North,360,7.0,14.0,87,0.00,,,0.01,Wunderground v.1.15,2013-05-23 13:18:00,
2013-05-23 09:20:00,73.2,68.8,29.88,North,360,8.0,10.0,86,0.00,,,0.01,Wunderground v.1.15,2013-05-23 13:20:00,
2013-05-23 09:24:00,73.0,68.6,29.88,North,360,10.0,12.0,86,0.00,,,0.01,Wunderground v.1.15,2013-05-23 13:24:00,
2013-05-23 09:28:00,73.0,68.9,29.88,North,360,11.0,12.0,87,0.00,,,0.01,Wunderground v.1.15,2013-05-23 13:28:00,
2013-05-23 09:34:00,72.9,68.8,29.88,North,360,10.0,14.0,87,0.00,,,0.01,Wunderground v.1.15,2013-05-23 13:34:00,
2013-05-23 09:36:00,72.8,68.4,29.88,North,360,11.0,14.0,86,0.00,,,0.01,Wunderground v.1.15,2013-05-23 13:36:00,
2013-05-23 09:38:00,72.9,68.5,29.87,North,360,11.0,14.0,86,0.00,,,0.01,Wunderground v.1.15,2013-05-23 13:38:00,
2013-05-23 09:40:00,72.9,68.5,29.87,North,360,10.0,11.0,86,0.00,,,0.01,Wunderground v.1.15,2013-05-23 13:40:00,
2013-05-23 09:46:00,73.3,69.2,29.87,North,360,7.0,11.0,87,0.00,,,0.01,Wunderground v.1.15,2013-05-23 13:46:00,
2013-05-23 09:48:00,73.5,69.1,29.87,North,360,6.0,11.0,86,0.00,,,0.01,Wunderground v.1.15,2013-05-23 13:48:00,
2013-05-23 09:50:00,73.5,68.7,29.87,North,360,6.0,6.0,85,0.00,,,0.01,Wunderground v.1.15,2013-05-23 13:50:00,
2013-05-23 09:54:00,73.8,69.0,29.87,North,360,5.0,6.0,85,0.00,,,0.01,Wunderground v.1.15,2013-05-23 13:54:00,
2013-05-23 09:56:00,74.0,69.2,29.88,North,360,5.0,14.0,85,0.00,,,0.01,Wunderground v.1.15,2013-05-23 13:56:00,
2013-05-23 09:58:00,74.2,68.7,29.87,North,360,5.0,14.0,83,0.00,,,0.01,Wunderground v.1.15,2013-05-23 13:58:00,
2013-05-23 10:02:00,74.3,68.4,29.87,North,360,5.0,14.0,82,0.00,,,0.01,Wunderground v.1.15,2013-05-23 14:02:00,
2013-05-23 10:04:00,74.4,68.5,29.87,North,360,5.0,14.0,82,0.00,,,0.01,Wunderground v.1.15,2013-05-23 14:04:00,
2013-05-23 10:06:00,74.4,68.2,29.88,North,360,6.0,14.0,81,0.00,,,0.01,Wunderground v.1.15,2013-05-23 14:06:00,
2013-05-23 10:08:00,74.4,68.2,29.88,North,360,6.0,14.0,81,0.00,,,0.01,Wunderground v.1.15,2013-05-23 14:08:00,
2013-05-23 10:10:00,74.5,68.3,29.88,North,360,6.0,7.0,81,0.00,,,0.01,Wunderground v.1.15,2013-05-23 14:10:00,
2013-05-23 10:12:00,74.5,68.3,29.88,North,360,7.0,7.0,81,0.00,,,0.01,Wunderground v.1.15,2013-05-23 14:12:00,
2013-05-23 10:16:00,74.4,68.2,29.87,North,360,6.0,7.0,81,0.00,,,0.01,Wunderground v.1.15,2013-05-23 14:16:00,
2013-05-23 10:18:00,74.4,68.2,29.87,North,360,7.0,11.0,81,0.00,,,0.01,Wunderground v.1.15,2013-05-23 14:18:00,
2013-05-23 10:20:00,74.3,67.7,29.87,North,360,8.0,11.0,80,0.00,,,0.01,Wunderground v.1.15,2013-05-23 14:20:00,
2013-05-23 10:22:00,74.2,68.0,29.87,North,360,8.0,11.0,81,0.00,,,0.01,Wunderground v.1.15,2013-05-23 14:22:00,
2013-05-23 10:24:00,74.2,68.0,29.87,North,360,8.0,11.0,81,0.00,,,0.01,Wunderground v.1.15,2013-05-23 14:24:00,
2013-05-23 10:26:00,74.2,67.6,29.87,North,360,8.0,11.0,80,0.00,,,0.01,Wunderground v.1.15,2013-05-23 14:26:00,
2013-05-23 10:30:00,74.3,67.7,29.87,North,360,7.0,7.0,80,0.00,,,0.01,Wunderground v.1.15,2013-05-23 14:30:00,
2013-05-23 10:32:00,74.3,67.7,29.88,North,360,7.0,7.0,80,0.00,,,0.01,Wunderground v.1.15,2013-05-23 14:32:00,
2013-05-23 10:34:00,74.4,67.8,29.88,North,360,6.0,7.0,80,0.00,,,0.01,Wunderground v.1.15,2013-05-23 14:34:00,
2013-05-23 10:36:00,74.4,67.8,29.88,North,360,7.0,10.0,80,0.00,,,0.01,Wunderground v.1.15,2013-05-23 14:36:00,
2013-05-23 10:38:00,74.4,67.8,29.87,North,360,6.0,10.0,80,0.00,,,0.01,Wunderground v.1.15,2013-05-23 14:38:00,
2013-05-23 10:44:00,74.8,68.6,29.88,North,360,4.0,6.0,81,0.00,,,0.01,Wunderground v.1.15,2013-05-23 14:44:00,
2013-05-23 10:46:00,74.9,68.3,29.87,North,360,4.0,6.0,80,0.00,,,0.01,Wunderground v.1.15,2013-05-23 14:46:00,
2013-05-23 10:48:00,75.0,68.4,29.87,North,360,4.0,11.0,80,0.00,,,0.01,Wunderground v.1.15,2013-05-23 14:48:00,
2013-05-23 10:50:00,74.9,68.7,29.87,North,360,6.0,12.0,81,0.00,,,0.01,Wunderground v.1.15,2013-05-23 14:50:00,
2013-05-23 10:52:00,74.8,68.6,29.87,North,360,7.0,12.0,81,0.00,,,0.01,Wunderground v.1.15,2013-05-23 14:52:00,
2013-05-23 10:54:00,74.7,68.5,29.88,North,360,8.0,12.0,81,0.00,,,0.01,Wunderground v.1.15,2013-05-23 14:54:00,
2013-05-23 10:58:00,74.6,68.4,29.88,North,360,9.0,12.0,81,0.00,,,0.01,Wunderground v.1.15,2013-05-23 14:58:00,
2013-05-23 11:00:00,74.5,68.3,29.88,North,360,8.0,13.0,81,0.00,,,0.01,Wunderground v.1.15,2013-05-23 15:00:00,
2013-05-23 11:04:00,74.5,68.3,29.88,North,360,9.0,13.0,81,0.00,,,0.01,Wunderground v.1.15,2013-05-23 15:04:00,
2013-05-23 11:06:00,74.5,68.3,29.88,North,360,9.0,13.0,81,0.00,,,0.01,Wunderground v.1.15,2013-05-23 15:06:00,
2013-05-23 11:10:00,74.6,68.4,29.88,North,360,7.0,8.0,81,0.00,,,0.01,Wunderground v.1.15,2013-05-23 15:10:00,
2013-05-23 11:12:00,74.7,68.1,29.88,North,360,6.0,8.0,80,0.00,,,0.01,Wunderground v.1.15,2013-05-23 15:12:00,
2013-05-23 11:16:00,74.9,68.3,29.88,North,360,6.0,8.0,80,0.00,,,0.01,Wunderground v.1.15,2013-05-23 15:16:00,
2013-05-23 11:18:00,74.9,68.3,29.88,North,360,6.0,8.0,80,0.00,,,0.01,Wunderground v.1.15,2013-05-23 15:18:00,
2013-05-23 11:20:00,75.0,68.0,29.88,North,360,6.0,9.0,79,0.00,,,0.01,Wunderground v.1.15,2013-05-23 15:20:00,
2013-05-23 11:24:00,75.0,68.4,29.87,North,360,7.0,9.0,80,0.00,,,0.01,Wunderground v.1.15,2013-05-23 15:24:00,
2013-05-23 11:26:00,75.0,68.0,29.87,North,360,6.0,9.0,79,0.00,,,0.01,Wunderground v.1.15,2013-05-23 15:26:00,
2013-05-23 11:28:00,75.0,68.0,29.87,North,360,6.0,11.0,79,0.00,,,0.01,Wunderground v.1.15,2013-05-23 15:28:00,
2013-05-23 11:32:00,74.9,68.3,29.87,North,360,7.0,12.0,80,0.00,,,0.01,Wunderground v.1.15,2013-05-23 15:32:00,
2013-05-23 11:36:00,74.8,68.2,29.87,North,360,9.0,12.0,80,0.00,,,0.01,Wunderground v.1.15,2013-05-23 15:36:00,
2013-05-23 11:38:00,74.9,68.7,29.87,North,360,9.0,12.0,81,0.00,,,0.01,Wunderground v.1.15,2013-05-23 15:38:00,
2013-05-23 11:40:00,75.0,68.4,29.87,North,360,8.0,8.0,80,0.00,,,0.01,Wunderground v.1.15,2013-05-23 15:40:00,
2013-05-23 11:42:00,75.1,68.5,29.87,North,360,7.0,8.0,80,0.00,,,0.01,Wunderground v.1.15,2013-05-23 15:42:00,
2013-05-23 11:44:00,75.2,68.2,29.87,North,360,7.0,12.0,79,0.00,,,0.01,Wunderground v.1.15,2013-05-23 15:44:00,
2013-05-23 11:46:00,75.2,68.2,29.87,North,360,7.0,12.0,79,0.00,,,0.01,Wunderground v.1.15,2013-05-23 15:46:00,
2013-05-23 11:50:00,75.3,68.3,29.87,North,360,8.0,11.0,79,0.00,,,0.01,Wunderground v.1.15,2013-05-23 15:50:00,
2013-05-23 11:52:00,75.3,68.3,29.87,North,360,8.0,11.0,79,0.00,,,0.01,Wunderground v.1.15,2013-05-23 15:52:00,
2013-05-23 11:54:00,75.3,68.3,29.87,North,360,8.0,11.0,79,0.00,,,0.01,Wunderground v.1.15,2013-05-23 15:54:00,
2013-05-23 11:58:00,75.5,68.5,29.87,North,360,7.0,13.0,79,0.00,,,0.01,Wunderground v.1.15,2013-05-23 15:58:00,
2013-05-23 12:00:00,75.5,68.5,29.86,North,360,7.0,7.0,79,0.00,,,0.01,Wunderground v.1.15,2013-05-23 16:00:00,
2013-05-23 12:02:00,75.6,68.6,29.86,North,360,8.0,8.0,79,0.00,,,0.01,Wunderground v.1.15,2013-05-23 16:02:00,
2013-05-23 12:04:00,75.7,68.4,29.86,North,360,8.0,10.0,78,0.00,,,0.01,Wunderground v.1.15,2013-05-23 16:04:00,
2013-05-23 12:06:00,75.7,68.4,29.86,North,360,8.0,10.0,78,0.00,,,0.01,Wunderground v.1.15,2013-05-23 16:06:00,
2013-05-23 12:12:00,75.9,68.5,29.86,North,360,7.0,8.0,78,0.00,,,0.01,Wunderground v.1.15,2013-05-23 16:12:00,
2013-05-23 12:14:00,76.0,68.6,29.86,North,360,7.0,8.0,78,0.00,,,0.01,Wunderground v.1.15,2013-05-23 16:14:00,
2013-05-23 12:18:00,76.2,68.8,29.86,North,360,6.0,11.0,78,0.00,,,0.01,Wunderground v.1.15,2013-05-23 16:18:00,
2013-05-23 12:20:00,76.2,68.8,29.86,North,360,6.0,6.0,78,0.00,,,0.01,Wunderground v.1.15,2013-05-23 16:20:00,
2013-05-23 12:22:00,76.2,68.8,29.86,North,360,6.0,8.0,78,0.00,,,0.01,Wunderground v.1.15,2013-05-23 16:22:00,
2013-05-23 12:26:00,76.2,68.5,29.86,North,360,6.0,9.0,77,0.00,,,0.01,Wunderground v.1.15,2013-05-23 16:26:00,
2013-05-23 12:28:00,76.2,68.8,29.86,North,360,7.0,9.0,78,0.00,,,0.01,Wunderground v.1.15,2013-05-23 16:28:00,
2013-05-23 12:32:00,76.1,68.7,29.87,North,360,8.0,10.0,78,0.00,,,0.01,Wunderground v.1.15,2013-05-23 16:32:00,
2013-05-23 12:34:00,76.0,68.3,29.86,North,360,8.0,10.0,77,0.00,,,0.01,Wunderground v.1.15,2013-05-23 16:34:00,
2013-05-23 12:38:00,76.0,68.6,29.86,North,360,8.0,10.0,78,0.00,,,0.01,Wunderground v.1.15,2013-05-23 16:38:00,
2013-05-23 12:40:00,76.2,68.8,29.86,North,360,7.0,7.0,78,0.00,,,0.01,Wunderground v.1.15,2013-05-23 16:40:00,
2013-05-23 12:42:00,76.2,68.5,29.86,North,360,7.0,13.0,77,0.00,,,0.01,Wunderground v.1.15,2013-05-23 16:42:00,
2013-05-23 12:44:00,76.1,68.4,29.86,North,360,7.0,13.0,77,0.00,,,0.01,Wunderground v.1.15,2013-05-23 16:44:00,
2013-05-23 12:48:00,75.9,68.2,29.86,North,360,10.0,13.0,77,0.00,,,0.01,Wunderground v.1.15,2013-05-23 16:48:00,
2013-05-23 12:50:00,76.0,68.3,29.86,North,360,10.0,10.0,77,0.00,,,0.01,Wunderground v.1.15,2013-05-23 16:50:00,
2013-05-23 12:52:00,76.0,68.3,29.85,North,360,10.0,10.0,77,0.00,,,0.01,Wunderground v.1.15,2013-05-23 16:52:00,
2013-05-23 12:56:00,76.1,68.0,29.86,North,360,9.0,10.0,76,0.00,,,0.01,Wunderground v.1.15,2013-05-23 16:56:00,
2013-05-23 12:58:00,76.2,67.7,29.85,North,360,8.0,10.0,75,0.00,,,0.01,Wunderground v.1.15,2013-05-23 16:58:00,
2013-05-23 13:04:00,76.2,67.7,29.85,North,360,8.0,12.0,75,0.00,,,0.01,Wunderground v.1.15,2013-05-23 17:04:00,
2013-05-23 13:06:00,76.2,67.7,29.85,North,360,8.0,12.0,75,0.00,,,0.01,Wunderground v.1.15,2013-05-23 17:06:00,
2013-05-23 13:10:00,76.3,67.8,29.85,North,360,8.0,8.0,75,0.00,,,0.01,Wunderground v.1.15,2013-05-23 17:10:00,
2013-05-23 13:12:00,76.4,67.9,29.85,North,360,7.0,8.0,75,0.00,,,0.01,Wunderground v.1.15,2013-05-23 17:12:00,
2013-05-23 13:14:00,76.5,68.0,29.85,North,360,7.0,8.0,75,0.00,,,0.01,Wunderground v.1.15,2013-05-23 17:14:00,
2013-05-23 13:16:00,76.6,68.1,29.85,North,360,6.0,8.0,75,0.00,,,0.01,Wunderground v.1.15,2013-05-23 17:16:00,
2013-05-23 13:22:00,76.4,68.3,29.85,North,360,8.0,12.0,76,0.00,,,0.01,Wunderground v.1.15,2013-05-23 17:22:00,
2013-05-23 13:28:00,76.3,68.2,29.84,North,360,8.0,12.0,76,0.00,,,0.01,Wunderground v.1.15,2013-05-23 17:28:00,
2013-05-23 13:32:00,76.1,68.0,29.84,North,360,9.0,11.0,76,0.00,,,0.01,Wunderground v.1.15,2013-05-23 17:32:00,
2013-05-23 13:34:00,76.1,68.0,29.84,North,360,9.0,11.0,76,0.00,,,0.01,Wunderground v.1.15,2013-05-23 17:34:00,
2013-05-23 13:36:00,76.1,68.0,29.84,North,360,10.0,11.0,76,0.00,,,0.01,Wunderground v.1.15,2013-05-23 17:36:00,
2013-05-23 13:38:00,76.0,67.9,29.84,North,360,10.0,11.0,76,0.00,,,0.01,Wunderground v.1.15,2013-05-23 17:38:00,
2013-05-23 13:40:00,76.0,67.9,29.84,North,360,10.0,11.0,76,0.00,,,0.01,Wunderground v.1.15,2013-05-23 17:40:00,
2013-05-23 13:42:00,76.0,67.9,29.84,North,360,9.0,11.0,76,0.00,,,0.01,Wunderground v.1.15,2013-05-23 17:42:00,
2013-05-23 13:44:00,76.0,67.9,29.84,North,360,9.0,11.0,76,0.00,,,0.01,Wunderground v.1.15,2013-05-23 17:44:00,
2013-05-23 13:46:00,76.1,68.0,29.84,North,360,9.0,11.0,76,0.00,,,0.01,Wunderground v.1.15,2013-05-23 17:46:00,
2013-05-23 13:48:00,76.2,68.1,29.83,North,360,9.0,11.0,76,0.00,,,0.01,Wunderground v.1.15,2013-05-23 17:48:00,
2013-05-23 13:50:00,76.3,68.2,29.84,North,360,8.0,8.0,76,0.00,,,0.01,Wunderground v.1.15,2013-05-23 17:50:00,
2013-05-23 13:52:00,76.4,67.9,29.83,North,360,8.0,12.0,75,0.00,,,0.01,Wunderground v.1.15,2013-05-23 17:52:00,
2013-05-23 13:56:00,76.4,67.9,29.83,North,360,9.0,12.0,75,0.00,,,0.01,Wunderground v.1.15,2013-05-23 17:56:00,
2013-05-23 13:58:00,76.6,68.1,29.83,North,360,9.0,12.0,75,0.00,,,0.01,Wunderground v.1.15,2013-05-23 17:58:00,
2013-05-23 14:00:00,76.7,67.8,29.83,North,360,9.0,9.0,74,0.00,,,0.01,Wunderground v.1.15,2013-05-23 18:00:00,
2013-05-23 14:02:00,76.9,67.6,29.83,North,360,8.0,9.0,73,0.00,,,0.01,Wunderground v.1.15,2013-05-23 18:02:00,
2013-05-23 14:06:00,77.3,67.6,29.83,North,360,7.0,11.0,72,0.00,,,0.01,Wunderground v.1.15,2013-05-23 18:06:00,
2013-05-23 14:08:00,77.4,67.7,29.83,North,360,6.0,11.0,72,0.00,,,0.01,Wunderground v.1.15,2013-05-23 18:08:00,
2013-05-23 14:12:00,77.5,67.8,29.83,North,360,7.0,14.0,72,0.00,,,0.01,Wunderground v.1.15,2013-05-23 18:12:00,
2013-05-23 14:14:00,77.6,67.4,29.83,North,360,7.0,14.0,71,0.00,,,0.01,Wunderground v.1.15,2013-05-23 18:14:00,
2013-05-23 14:16:00,77.5,67.4,29.82,North,360,8.0,14.0,71,0.00,,,0.01,Wunderground v.1.15,2013-05-23 18:16:00,
2013-05-23 14:20:00,77.5,67.4,29.82,North,360,10.0,10.0,71,0.00,,,0.01,Wunderground v.1.15,2013-05-23 18:20:00,
2013-05-23 14:22:00,77.5,67.4,29.82,North,360,11.0,14.0,71,0.00,,,0.01,Wunderground v.1.15,2013-05-23 18:22:00,
2013-05-23 14:24:00,77.4,67.3,29.82,North,360,11.0,14.0,71,0.00,,,0.01,Wunderground v.1.15,2013-05-23 18:24:00,
2013-05-23 14:28:00,77.5,67.8,29.82,North,360,10.0,14.0,72,0.00,,,0.01,Wunderground v.1.15,2013-05-23 18:28:00,
2013-05-23 14:30:00,77.6,67.4,29.82,North,360,10.0,10.0,71,0.00,,,0.01,Wunderground v.1.15,2013-05-23 18:30:00,
2013-05-23 14:34:00,77.6,67.4,29.82,North,360,11.0,16.0,71,0.00,,,0.01,Wunderground v.1.15,2013-05-23 18:34:00,
2013-05-23 14:40:00,77.9,67.7,29.81,North,360,10.0,10.0,71,0.00,,,0.01,Wunderground v.1.15,2013-05-23 18:40:00,
2013-05-23 14:46:00,78.5,68.3,29.81,North,360,7.0,10.0,71,0.00,,,0.01,Wunderground v.1.15,2013-05-23 18:46:00,
2013-05-23 14:48:00,78.7,68.1,29.81,North,360,7.0,14.0,70,0.00,,,0.01,Wunderground v.1.15,2013-05-23 18:48:00,
2013-05-23 14:52:00,78.7,68.1,29.81,North,360,9.0,12.0,70,0.00,,,0.01,Wunderground v.1.15,2013-05-23 18:52:00,
2013-05-23 14:56:00,78.6,68.4,29.81,North,360,9.0,12.0,71,0.00,,,0.01,Wunderground v.1.15,2013-05-23 18:56:00,
2013-05-23 14:58:00,78.9,67.9,29.81,North,360,9.0,12.0,69,0.00,,,0.01,Wunderground v.1.15,2013-05-23 18:58:00,
2013-05-23 15:00:00,79.0,68.4,29.81,North,360,8.0,8.0,70,0.00,,,0.01,Wunderground v.1.15,2013-05-23 19:00:00,
2013-05-23 15:02:00,79.2,68.1,29.80,North,360,7.0,8.0,69,0.00,,,0.01,Wunderground v.1.15,2013-05-23 19:02:00,
2013-05-23 15:04:00,79.3,67.8,29.80,North,360,6.0,15.0,68,0.00,,,0.01,Wunderground v.1.15,2013-05-23 19:04:00,
2013-05-23 15:06:00,79.3,67.8,29.80,North,360,8.0,15.0,68,0.00,,,0.01,Wunderground v.1.15,2013-05-23 19:06:00,
2013-05-23 15:08:00,79.2,67.7,29.80,North,360,8.0,15.0,68,0.00,,,0.01,Wunderground v.1.15,2013-05-23 19:08:00,
2013-05-23 15:14:00,79.2,67.3,29.79,North,360,10.0,11.0,67,0.00,,,0.01,Wunderground v.1.15,2013-05-23 19:14:00,
2013-05-23 15:16:00,79.2,67.3,29.79,North,360,10.0,11.0,67,0.00,,,0.01,Wunderground v.1.15,2013-05-23 19:16:00,
2013-05-23 15:18:00,79.3,67.8,29.79,North,360,10.0,11.0,68,0.00,,,0.01,Wunderground v.1.15,2013-05-23 19:18:00,
2013-05-23 15:22:00,79.8,67.9,29.79,North,360,9.0,14.0,67,0.00,,,0.01,Wunderground v.1.15,2013-05-23 19:22:00,
2013-05-23 15:24:00,79.9,67.5,29.79,North,360,8.0,14.0,66,0.00,,,0.01,Wunderground v.1.15,2013-05-23 19:24:00,
2013-05-23 15:26:00,79.9,67.5,29.78,North,360,8.0,14.0,66,0.00,,,0.01,Wunderground v.1.15,2013-05-23 19:26:00,
2013-05-23 15:28:00,80.0,67.6,29.78,North,360,7.0,14.0,66,0.00,,,0.01,Wunderground v.1.15,2013-05-23 19:28:00,
2013-05-23 15:30:00,80.0,67.6,29.78,North,360,9.0,9.0,66,0.00,,,0.01,Wunderground v.1.15,2013-05-23 19:30:00,
2013-05-23 15:32:00,79.9,67.1,29.78,North,360,10.0,16.0,65,0.00,,,0.01,Wunderground v.1.15,2013-05-23 19:32:00,
2013-05-23 15:34:00,79.5,66.7,29.78,North,360,10.0,16.0,65,0.00,,,0.01,Wunderground v.1.15,2013-05-23 19:34:00,
2013-05-23 15:38:00,79.4,67.0,29.78,North,360,11.0,16.0,66,0.00,,,0.01,Wunderground v.1.15,2013-05-23 19:38:00,
2013-05-23 15:40:00,79.6,67.2,29.78,North,360,10.0,12.0,66,0.00,,,0.01,Wunderground v.1.15,2013-05-23 19:40:00,
2013-05-23 15:46:00,80.1,67.7,29.77,North,360,9.0,12.0,66,0.00,,,0.01,Wunderground v.1.15,2013-05-23 19:46:00,
2013-05-23 15:48:00,80.3,67.9,29.77,North,360,8.0,12.0,66,0.00,,,0.01,Wunderground v.1.15,2013-05-23 19:48:00,
2013-05-23 15:50:00,80.5,68.1,29.77,North,360,9.0,9.0,66,0.00,,,0.01,Wunderground v.1.15,2013-05-23 19:50:00,
2013-05-23 15:52:00,80.4,68.0,29.77,North,360,8.0,13.0,66,0.00,,,0.01,Wunderground v.1.15,2013-05-23 19:52:00,
2013-05-23 15:54:00,80.2,67.8,29.77,North,360,8.0,13.0,66,0.00,,,0.01,Wunderground v.1.15,2013-05-23 19:54:00,
2013-05-23 15:56:00,80.2,68.2,29.77,North,360,8.0,14.0,67,0.00,,,0.01,Wunderground v.1.15,2013-05-23 19:56:00,
2013-05-23 16:00:00,80.3,67.9,29.77,North,360,8.0,14.0,66,0.00,,,0.01,Wunderground v.1.15,2013-05-23 20:00:00,
2013-05-23 16:02:00,80.2,67.8,29.77,North,360,8.0,14.0,66,0.00,,,0.01,Wunderground v.1.15,2013-05-23 20:02:00,
2013-05-23 16:04:00,80.2,67.8,29.77,North,360,9.0,14.0,66,0.00,,,0.01,Wunderground v.1.15,2013-05-23 20:04:00,
2013-05-23 16:06:00,80.3,67.9,29.77,North,360,10.0,14.0,66,0.00,,,0.01,Wunderground v.1.15,2013-05-23 20:06:00,
2013-05-23 16:10:00,80.2,67.8,29.76,North,360,10.0,10.0,66,0.00,,,0.01,Wunderground v.1.15,2013-05-23 20:10:00,
2013-05-23 16:14:00,80.6,67.7,29.76,North,360,10.0,10.0,65,0.00,,,0.01,Wunderground v.1.15,2013-05-23 20:14:00,
2013-05-23 16:16:00,80.7,67.4,29.76,North,360,9.0,10.0,64,0.00,,,0.01,Wunderground v.1.15,2013-05-23 20:16:00,
2013-05-23 16:18:00,80.7,67.4,29.76,North,360,9.0,10.0,64,0.00,,,0.01,Wunderground v.1.15,2013-05-23 20:18:00,
2013-05-23 16:22:00,80.6,67.7,29.76,North,360,9.0,11.0,65,0.00,,,0.01,Wunderground v.1.15,2013-05-23 20:22:00,
2013-05-23 16:24:00,80.6,67.7,29.76,North,360,9.0,12.0,65,0.00,,,0.01,Wunderground v.1.15,2013-05-23 20:24:00,
2013-05-23 16:30:00,80.9,68.0,29.76,North,360,9.0,9.0,65,0.00,,,0.01,Wunderground v.1.15,2013-05-23 20:30:00,
2013-05-23 16:34:00,80.9,68.5,29.75,North,360,7.0,9.0,66,0.00,,,0.01,Wunderground v.1.15,2013-05-23 20:34:00,
2013-05-23 16:36:00,80.8,68.4,29.75,North,360,8.0,9.0,66,0.00,,,0.01,Wunderground v.1.15,2013-05-23 20:36:00,
2013-05-23 16:42:00,80.6,68.2,29.75,North,360,9.0,10.0,66,0.00,,,0.01,Wunderground v.1.15,2013-05-23 20:42:00,
2013-05-23 16:48:00,80.5,67.6,29.75,North,360,9.0,11.0,65,0.00,,,0.01,Wunderground v.1.15,2013-05-23 20:48:00,
2013-05-23 16:50:00,80.4,67.6,29.75,North,360,8.0,8.0,65,0.00,,,0.01,Wunderground v.1.15,2013-05-23 20:50:00,
2013-05-23 16:52:00,80.4,67.6,29.75,North,360,8.0,8.0,65,0.00,,,0.01,Wunderground v.1.15,2013-05-23 20:52:00,
2013-05-23 16:56:00,80.4,67.6,29.75,North,360,7.0,11.0,65,0.00,,,0.01,Wunderground v.1.15,2013-05-23 20:56:00,
2013-05-23 16:58:00,80.4,67.1,29.75,North,360,7.0,12.0,64,0.00,,,0.01,Wunderground v.1.15,2013-05-23 20:58:00,
2013-05-23 17:00:00,80.3,67.9,29.75,North,360,7.0,9.0,66,0.00,,,0.01,Wunderground v.1.15,2013-05-23 21:00:00,
2013-05-23 17:02:00,80.3,67.9,29.75,North,360,8.0,10.0,66,0.00,,,0.01,Wunderground v.1.15,2013-05-23 21:02:00,
2013-05-23 17:06:00,80.3,67.5,29.75,North,360,7.0,10.0,65,0.00,,,0.01,Wunderground v.1.15,2013-05-23 21:06:00,
2013-05-23 17:08:00,80.4,67.6,29.75,North,360,7.0,10.0,65,0.00,,,0.01,Wunderground v.1.15,2013-05-23 21:08:00,
2013-05-23 17:10:00,80.4,67.6,29.75,North,360,7.0,10.0,65,0.00,,,0.01,Wunderground v.1.15,2013-05-23 21:10:00,
2013-05-23 17:12:00,80.4,68.0,29.75,North,360,7.0,10.0,66,0.00,,,0.01,Wunderground v.1.15,2013-05-23 21:12:00,
2013-05-23 17:14:00,80.3,67.9,29.75,North,360,8.0,10.0,66,0.00,,,0.01,Wunderground v.1.15,2013-05-23 21:14:00,
2013-05-23 17:16:00,80.3,68.3,29.75,North,360,8.0,10.0,67,0.00,,,0.01,Wunderground v.1.15,2013-05-23 21:16:00,
2013-05-23 17:18:00,80.2,68.7,29.75,North,360,9.0,12.0,68,0.00,,,0.01,Wunderground v.1.15,2013-05-23 21:18:00,
2013-05-23 17:24:00,77.5,68.9,29.76,North,360,10.0,11.0,75,0.00,,,0.02,Wunderground v.1.15,2013-05-23 21:24:00,
2013-05-23 17:28:00,76.6,68.5,29.76,North,360,10.0,11.0,76,0.00,,,0.02,Wunderground v.1.15,2013-05-23 21:28:00,
2013-05-23 17:30:00,76.4,69.0,29.76,North,360,8.0,8.0,78,0.00,,,0.02,Wunderground v.1.15,2013-05-23 21:30:00,
2013-05-23 17:34:00,76.3,68.9,29.75,North,360,7.0,12.0,78,0.00,,,0.02,Wunderground v.1.15,2013-05-23 21:34:00,
2013-05-23 17:36:00,76.3,68.9,29.75,North,360,7.0,12.0,78,0.00,,,0.02,Wunderground v.1.15,2013-05-23 21:36:00,
2013-05-23 17:38:00,76.3,68.9,29.75,North,360,7.0,12.0,78,0.00,,,0.02,Wunderground v.1.15,2013-05-23 21:38:00,
2013-05-23 17:40:00,76.4,69.0,29.75,North,360,7.0,7.0,78,0.00,,,0.02,Wunderground v.1.15,2013-05-23 21:40:00,
2013-05-23 17:46:00,76.5,69.1,29.75,North,360,5.0,7.0,78,0.00,,,0.02,Wunderground v.1.15,2013-05-23 21:46:00,
2013-05-23 17:48:00,76.5,69.1,29.75,North,360,5.0,12.0,78,0.00,,,0.02,Wunderground v.1.15,2013-05-23 21:48:00,
2013-05-23 17:52:00,76.4,69.0,29.75,North,360,7.0,9.0,78,0.00,,,0.02,Wunderground v.1.15,2013-05-23 21:52:00,
2013-05-23 17:54:00,76.4,69.0,29.74,North,360,7.0,9.0,78,0.00,,,0.02,Wunderground v.1.15,2013-05-23 21:54:00,
2013-05-23 17:58:00,76.5,69.1,29.74,North,360,6.0,9.0,78,0.00,,,0.02,Wunderground v.1.15,2013-05-23 21:58:00,
2013-05-23 18:00:00,76.5,69.5,29.74,North,360,5.0,5.0,79,0.00,,,0.02,Wunderground v.1.15,2013-05-23 22:00:00,
2013-05-23 18:04:00,76.6,69.6,29.74,North,360,5.0,12.0,79,0.00,,,0.02,Wunderground v.1.15,2013-05-23 22:04:00,
2013-05-23 18:06:00,76.6,69.6,29.74,North,360,6.0,12.0,79,0.00,,,0.02,Wunderground v.1.15,2013-05-23 22:06:00,
2013-05-23 18:08:00,76.6,69.6,29.75,North,360,6.0,12.0,79,0.00,,,0.02,Wunderground v.1.15,2013-05-23 22:08:00,
2013-05-23 18:10:00,76.6,69.6,29.74,North,360,7.0,7.0,79,0.00,,,0.02,Wunderground v.1.15,2013-05-23 22:10:00,
2013-05-23 18:12:00,76.6,69.6,29.74,North,360,7.0,12.0,79,0.00,,,0.02,Wunderground v.1.15,2013-05-23 22:12:00,
2013-05-23 18:14:00,76.6,69.2,29.74,North,360,8.0,12.0,78,0.00,,,0.02,Wunderground v.1.15,2013-05-23 22:14:00,
2013-05-23 18:16:00,76.6,69.2,29.74,North,360,8.0,12.0,78,0.00,,,0.02,Wunderground v.1.15,2013-05-23 22:16:00,
2013-05-23 18:18:00,76.5,69.1,29.74,North,360,8.0,12.0,78,0.00,,,0.02,Wunderground v.1.15,2013-05-23 22:18:00,
2013-05-23 18:20:00,76.4,69.0,29.74,North,360,8.0,8.0,78,0.00,,,0.02,Wunderground v.1.15,2013-05-23 22:20:00,
2013-05-23 18:22:00,76.4,69.0,29.74,North,360,8.0,8.0,78,0.00,,,0.02,Wunderground v.1.15,2013-05-23 22:22:00,
2013-05-23 18:26:00,76.2,68.8,29.74,North,360,8.0,15.0,78,0.00,,,0.02,Wunderground v.1.15,2013-05-23 22:26:00,
2013-05-23 18:32:00,76.0,69.0,29.74,North,360,10.0,13.0,79,0.00,,,0.02,Wunderground v.1.15,2013-05-23 22:32:00,
2013-05-23 18:34:00,76.0,69.0,29.74,North,360,9.0,14.0,79,0.00,,,0.02,Wunderground v.1.15,2013-05-23 22:34:00,
2013-05-23 18:36:00,75.9,68.9,29.74,North,360,9.0,14.0,79,0.00,,,0.02,Wunderground v.1.15,2013-05-23 22:36:00,
2013-05-23 18:38:00,75.9,68.9,29.74,North,360,8.0,14.0,79,0.00,,,0.02,Wunderground v.1.15,2013-05-23 22:38:00,
2013-05-23 18:40:00,75.8,68.8,29.74,North,360,8.0,10.0,79,0.00,,,0.02,Wunderground v.1.15,2013-05-23 22:40:00,
2013-05-23 18:42:00,75.7,68.7,29.74,North,360,8.0,10.0,79,0.00,,,0.02,Wunderground v.1.15,2013-05-23 22:42:00,
2013-05-23 18:44:00,75.7,68.7,29.74,North,360,9.0,12.0,79,0.00,,,0.02,Wunderground v.1.15,2013-05-23 22:44:00,
2013-05-23 18:48:00,75.7,69.1,29.74,North,360,9.0,12.0,80,0.00,,,0.02,Wunderground v.1.15,2013-05-23 22:48:00,
2013-05-23 18:50:00,75.7,69.1,29.74,North,360,9.0,11.0,80,0.00,,,0.02,Wunderground v.1.15,2013-05-23 22:50:00,
2013-05-23 18:52:00,75.7,69.1,29.74,North,360,8.0,11.0,80,0.00,,,0.02,Wunderground v.1.15,2013-05-23 22:52:00,
2013-05-23 18:56:00,75.7,69.1,29.74,North,360,7.0,15.0,80,0.00,,,0.02,Wunderground v.1.15,2013-05-23 22:56:00,
2013-05-23 19:02:00,75.7,69.1,29.74,North,360,8.0,9.0,80,0.00,,,0.02,Wunderground v.1.15,2013-05-23 23:02:00,
2013-05-23 19:04:00,75.7,69.1,29.74,North,360,8.0,9.0,80,0.00,,,0.02,Wunderground v.1.15,2013-05-23 23:04:00,
2013-05-23 19:10:00,75.8,69.2,29.74,North,360,7.0,7.0,80,0.00,,,0.02,Wunderground v.1.15,2013-05-23 23:10:00,
2013-05-23 19:12:00,75.8,69.2,29.74,North,360,7.0,17.0,80,0.00,,,0.02,Wunderground v.1.15,2013-05-23 23:12:00,
2013-05-23 19:14:00,75.7,69.1,29.75,North,360,8.0,17.0,80,0.00,,,0.02,Wunderground v.1.15,2013-05-23 23:14:00,
2013-05-23 19:16:00,75.7,69.1,29.75,North,360,8.0,17.0,80,0.00,,,0.02,Wunderground v.1.15,2013-05-23 23:16:00,
2013-05-23 19:20:00,75.6,69.4,29.75,North,360,9.0,9.0,81,0.00,,,0.02,Wunderground v.1.15,2013-05-23 23:20:00,
2013-05-23 19:22:00,75.6,69.4,29.75,North,360,9.0,9.0,81,0.00,,,0.02,Wunderground v.1.15,2013-05-23 23:22:00,
2013-05-23 19:26:00,75.7,69.5,29.75,North,360,6.0,9.0,81,0.00,,,0.02,Wunderground v.1.15,2013-05-23 23:26:00,
2013-05-23 19:28:00,75.7,69.5,29.75,North,360,6.0,9.0,81,0.00,,,0.02,Wunderground v.1.15,2013-05-23 23:28:00,
2013-05-23 19:30:00,75.7,69.5,29.75,North,360,5.0,8.0,81,0.00,,,0.02,Wunderground v.1.15,2013-05-23 23:30:00,
2013-05-23 19:32:00,75.7,69.5,29.75,North,360,5.0,8.0,81,0.00,,,0.02,Wunderground v.1.15,2013-05-23 23:32:00,
2013-05-23 19:34:00,75.6,69.4,29.75,North,360,6.0,8.0,81,0.00,,,0.02,Wunderground v.1.15,2013-05-23 23:34:00,
2013-05-23 19:36:00,75.6,69.4,29.75,North,360,6.0,8.0,81,0.00,,,0.02,Wunderground v.1.15,2013-05-23 23:36:00,
2013-05-23 19:38:00,75.6,69.4,29.75,North,360,6.0,8.0,81,0.00,,,0.02,Wunderground v.1.15,2013-05-23 23:38:00,
2013-05-23 19:42:00,75.6,69.4,29.75,North,360,7.0,9.0,81,0.00,,,0.02,Wunderground v.1.15,2013-05-23 23:42:00,
2013-05-23 19:44:00,75.5,69.3,29.75,North,360,8.0,9.0,81,0.00,,,0.02,Wunderground v.1.15,2013-05-23 23:44:00,
2013-05-23 19:48:00,75.5,69.6,29.75,North,360,8.0,10.0,82,0.00,,,0.02,Wunderground v.1.15,2013-05-23 23:48:00,
2013-05-23 19:52:00,75.4,69.5,29.76,North,360,8.0,14.0,82,0.00,,,0.02,Wunderground v.1.15,2013-05-23 23:52:00,
2013-05-23 19:56:00,75.4,69.5,29.75,North,360,6.0,14.0,82,0.00,,,0.02,Wunderground v.1.15,2013-05-23 23:56:00,
2013-05-23 19:58:00,75.4,69.5,29.75,North,360,6.0,14.0,82,0.00,,,0.02,Wunderground v.1.15,2013-05-23 23:58:00,
2013-05-23 20:04:00,75.4,69.9,29.75,North,360,6.0,6.0,83,0.00,,,0.02,Wunderground v.1.15,2013-05-24 00:04:00,
2013-05-23 20:08:00,75.4,69.9,29.75,North,360,5.0,6.0,83,0.00,,,0.02,Wunderground v.1.15,2013-05-24 00:08:00,
2013-05-23 20:10:00,75.4,69.9,29.75,North,360,4.0,4.0,83,0.00,,,0.02,Wunderground v.1.15,2013-05-24 00:10:00,
2013-05-23 20:12:00,75.4,69.9,29.75,North,360,5.0,12.0,83,0.00,,,0.02,Wunderground v.1.15,2013-05-24 00:12:00,
2013-05-23 20:14:00,75.3,69.8,29.75,North,360,6.0,13.0,83,0.00,,,0.02,Wunderground v.1.15,2013-05-24 00:14:00,
2013-05-23 20:18:00,75.1,69.6,29.75,North,360,9.0,13.0,83,0.00,,,0.02,Wunderground v.1.15,2013-05-24 00:18:00,
2013-05-23 20:20:00,75.1,69.6,29.75,North,360,9.0,9.0,83,0.00,,,0.02,Wunderground v.1.15,2013-05-24 00:20:00,
2013-05-23 20:24:00,75.0,69.5,29.75,North,360,9.0,11.0,83,0.00,,,0.02,Wunderground v.1.15,2013-05-24 00:24:00,
2013-05-23 20:28:00,75.0,69.5,29.75,North,360,8.0,11.0,83,0.00,,,0.02,Wunderground v.1.15,2013-05-24 00:28:00,
2013-05-23 20:30:00,75.0,69.8,29.75,North,360,7.0,7.0,84,0.00,,,0.02,Wunderground v.1.15,2013-05-24 00:30:00,
2013-05-23 20:32:00,74.9,69.7,29.75,North,360,7.0,7.0,84,0.00,,,0.02,Wunderground v.1.15,2013-05-24 00:32:00,
2013-05-23 20:34:00,74.9,69.7,29.75,North,360,7.0,13.0,84,0.00,,,0.02,Wunderground v.1.15,2013-05-24 00:34:00,
2013-05-23 20:36:00,74.9,69.7,29.74,North,360,8.0,13.0,84,0.00,,,0.02,Wunderground v.1.15,2013-05-24 00:36:00,
2013-05-23 20:38:00,74.8,69.6,29.75,North,360,8.0,13.0,84,0.00,,,0.02,Wunderground v.1.15,2013-05-24 00:38:00,
2013-05-23 20:40:00,74.8,70.0,29.75,North,360,8.0,9.0,85,0.00,,,0.02,Wunderground v.1.15,2013-05-24 00:40:00,
2013-05-23 20:44:00,74.7,69.9,29.74,North,360,8.0,11.0,85,0.00,,,0.02,Wunderground v.1.15,2013-05-24 00:44:00,
2013-05-23 20:46:00,74.6,69.8,29.74,North,360,8.0,11.0,85,0.00,,,0.02,Wunderground v.1.15,2013-05-24 00:46:00,
2013-05-23 20:48:00,74.5,69.7,29.74,North,360,8.0,11.0,85,0.00,,,0.02,Wunderground v.1.15,2013-05-24 00:48:00,
2013-05-23 20:50:00,74.5,70.0,29.74,North,360,7.0,7.0,86,0.00,,,0.02,Wunderground v.1.15,2013-05-24 00:50:00,
2013-05-23 20:52:00,74.4,69.9,29.74,North,360,7.0,9.0,86,0.00,,,0.02,Wunderground v.1.15,2013-05-24 00:52:00,
2013-05-23 20:54:00,74.4,69.9,29.74,North,360,7.0,9.0,86,0.00,,,0.02,Wunderground v.1.15,2013-05-24 00:54:00,
2013-05-23 20:56:00,74.4,69.9,29.74,North,360,6.0,9.0,86,0.00,,,0.02,Wunderground v.1.15,2013-05-24 00:56:00,
2013-05-23 21:00:00,74.3,70.2,29.74,North,360,7.0,7.0,87,0.00,,,0.02,Wunderground v.1.15,2013-05-24 01:00:00,
2013-05-23 21:04:00,74.2,70.1,29.74,North,360,6.0,7.0,87,0.00,,,0.02,Wunderground v.1.15,2013-05-24 01:04:00,
2013-05-23 21:06:00,74.2,70.1,29.74,North,360,6.0,7.0,87,0.00,,,0.02,Wunderground v.1.15,2013-05-24 01:06:00,
2013-05-23 21:08:00,74.2,70.1,29.75,North,360,5.0,7.0,87,0.00,,,0.02,Wunderground v.1.15,2013-05-24 01:08:00,
2013-05-23 21:10:00,74.2,69.4,29.75,North,360,5.0,5.0,85,0.00,,,0.02,Wunderground v.1.15,2013-05-24 01:10:00,
2013-05-23 21:12:00,74.0,67.8,29.75,North,360,4.0,5.0,81,0.00,,,0.02,Wunderground v.1.15,2013-05-24 01:12:00,
2013-05-23 21:14:00,74.1,67.2,29.75,North,360,4.0,5.0,79,0.00,,,0.02,Wunderground v.1.15,2013-05-24 01:14:00,
2013-05-23 21:16:00,74.2,67.3,29.75,North,360,3.0,5.0,79,0.00,,,0.02,Wunderground v.1.15,2013-05-24 01:16:00,
2013-05-23 21:18:00,74.2,66.5,29.75,North,360,2.0,5.0,77,0.00,,,0.02,Wunderground v.1.15,2013-05-24 01:18:00,
2013-05-23 21:20:00,74.2,66.5,29.75,North,360,2.0,2.0,77,0.00,,,0.02,Wunderground v.1.15,2013-05-24 01:20:00,
2013-05-23 21:24:00,74.1,66.8,29.74,North,360,0.0,2.0,78,0.00,,,0.02,Wunderground v.1.15,2013-05-24 01:24:00,
2013-05-23 21:26:00,74.2,67.6,29.75,North,360,0.0,2.0,80,0.00,,,0.02,Wunderground v.1.15,2013-05-24 01:26:00,
2013-05-23 21:28:00,74.2,67.3,29.75,North,360,0.0,2.0,79,0.00,,,0.02,Wunderground v.1.15,2013-05-24 01:28:00,
2013-05-23 21:32:00,74.3,67.7,29.75,North,360,0.0,4.0,80,0.00,,,0.02,Wunderground v.1.15,2013-05-24 01:32:00,
2013-05-23 21:34:00,74.4,68.2,29.75,North,360,1.0,9.0,81,0.00,,,0.02,Wunderground v.1.15,2013-05-24 01:34:00,
2013-05-23 21:36:00,74.5,69.0,29.75,North,360,2.0,9.0,83,0.00,,,0.02,Wunderground v.1.15,2013-05-24 01:36:00,
2013-05-23 21:38:00,74.5,69.0,29.75,North,360,2.0,9.0,83,0.00,,,0.02,Wunderground v.1.15,2013-05-24 01:38:00,
2013-05-23 21:42:00,74.6,69.4,29.74,North,360,3.0,3.0,84,0.00,,,0.02,Wunderground v.1.15,2013-05-24 01:42:00,
2013-05-23 21:44:00,74.6,69.4,29.75,North,360,2.0,3.0,84,0.00,,,0.02,Wunderground v.1.15,2013-05-24 01:44:00,
2013-05-23 21:48:00,74.6,69.4,29.75,North,360,2.0,3.0,84,0.00,,,0.02,Wunderground v.1.15,2013-05-24 01:48:00,
2013-05-23 21:50:00,74.6,69.4,29.75,North,360,2.0,4.0,84,0.00,,,0.02,Wunderground v.1.15,2013-05-24 01:50:00,
2013-05-23 21:52:00,74.6,69.4,29.75,North,360,3.0,4.0,84,0.00,,,0.02,Wunderground v.1.15,2013-05-24 01:52:00,
2013-05-23 21:56:00,74.7,69.9,29.75,North,360,2.0,4.0,85,0.00,,,0.02,Wunderground v.1.15,2013-05-24 01:56:00,
2013-05-23 21:58:00,74.7,69.9,29.75,North,360,2.0,4.0,85,0.00,,,0.02,Wunderground v.1.15,2013-05-24 01:58:00,
2013-05-23 22:02:00,74.9,69.7,29.75,North,360,3.0,12.0,84,0.00,,,0.02,Wunderground v.1.15,2013-05-24 02:02:00,
2013-05-23 22:06:00,72.8,65.9,29.75,North,360,6.0,12.0,79,0.00,,,0.02,Wunderground v.1.15,2013-05-24 02:06:00,
2013-05-23 22:10:00,71.6,65.5,29.75,North,360,9.0,10.0,81,0.00,,,0.02,Wunderground v.1.15,2013-05-24 02:10:00,
2013-05-23 22:12:00,71.2,65.8,29.74,North,360,9.0,10.0,83,0.00,,,0.02,Wunderground v.1.15,2013-05-24 02:12:00,
2013-05-23 22:16:00,71.0,65.6,29.75,North,360,7.0,10.0,83,0.00,,,0.02,Wunderground v.1.15,2013-05-24 02:16:00,
2013-05-23 22:18:00,70.9,65.5,29.75,North,360,6.0,10.0,83,0.00,,,0.02,Wunderground v.1.15,2013-05-24 02:18:00,
2013-05-23 22:22:00,70.7,65.3,29.74,North,360,5.0,7.0,83,0.00,,,0.02,Wunderground v.1.15,2013-05-24 02:22:00,
2013-05-23 22:24:00,70.5,65.1,29.75,North,360,5.0,7.0,83,0.00,,,0.02,Wunderground v.1.15,2013-05-24 02:24:00,
2013-05-23 22:28:00,70.3,65.2,29.75,North,360,5.0,7.0,84,0.00,,,0.02,Wunderground v.1.15,2013-05-24 02:28:00,
2013-05-23 22:30:00,70.1,65.0,29.75,North,360,5.0,6.0,84,0.00,,,0.02,Wunderground v.1.15,2013-05-24 02:30:00,
2013-05-23 22:32:00,70.1,65.4,29.75,North,360,5.0,6.0,85,0.00,,,0.02,Wunderground v.1.15,2013-05-24 02:32:00,
2013-05-23 22:34:00,70.2,65.5,29.75,North,360,5.0,6.0,85,0.00,,,0.02,Wunderground v.1.15,2013-05-24 02:34:00,
2013-05-23 22:38:00,70.6,65.5,29.76,North,360,5.0,6.0,84,0.00,,,0.02,Wunderground v.1.15,2013-05-24 02:38:00,
2013-05-23 22:40:00,70.8,65.7,29.76,North,360,5.0,7.0,84,0.00,,,0.02,Wunderground v.1.15,2013-05-24 02:40:00,
2013-05-23 22:42:00,70.8,65.4,29.76,North,360,6.0,11.0,83,0.00,,,0.02,Wunderground v.1.15,2013-05-24 02:42:00,
2013-05-23 22:46:00,70.7,64.9,29.76,North,360,6.0,11.0,82,0.00,,,0.02,Wunderground v.1.15,2013-05-24 02:46:00,
2013-05-23 22:48:00,70.5,65.1,29.77,North,360,8.0,12.0,83,0.00,,,0.02,Wunderground v.1.15,2013-05-24 02:48:00,
2013-05-23 22:52:00,69.4,65.0,29.78,North,360,9.0,11.0,86,0.00,,,0.03,Wunderground v.1.15,2013-05-24 02:52:00,
2013-05-23 22:54:00,68.8,64.4,29.79,North,360,10.0,12.0,86,0.00,,,0.03,Wunderground v.1.15,2013-05-24 02:54:00,
2013-05-23 22:56:00,68.3,63.9,29.79,North,360,10.0,12.0,86,0.19,,,0.04,Wunderground v.1.15,2013-05-24 02:56:00,
2013-05-23 22:58:00,67.7,64.0,29.79,North,360,10.0,12.0,88,0.24,,,0.05,Wunderground v.1.15,2013-05-24 02:58:00,
2013-05-23 23:00:00,67.2,63.8,29.79,North,360,10.0,12.0,89,0.27,,,0.06,Wunderground v.1.15,2013-05-24 03:00:00,
2013-05-23 23:04:00,66.5,63.5,29.78,North,360,11.0,18.0,90,0.34,,,0.08,Wunderground v.1.15,2013-05-24 03:04:00,
2013-05-23 23:06:00,66.3,63.3,29.78,North,360,11.0,18.0,90,0.35,,,0.09,Wunderground v.1.15,2013-05-24 03:06:00,
2013-05-23 23:08:00,66.3,63.6,29.78,North,360,11.0,18.0,91,0.37,,,0.10,Wunderground v.1.15,2013-05-24 03:08:00,
2013-05-23 23:12:00,66.2,63.5,29.78,North,360,9.0,10.0,91,0.32,,,0.12,Wunderground v.1.15,2013-05-24 03:12:00,
2013-05-23 23:16:00,66.1,63.4,29.78,North,360,7.0,10.0,91,0.34,,,0.14,Wunderground v.1.15,2013-05-24 03:16:00,
2013-05-23 23:18:00,66.0,63.3,29.78,North,360,7.0,10.0,91,0.31,,,0.15,Wunderground v.1.15,2013-05-24 03:18:00,
2013-05-23 23:20:00,65.9,63.2,29.78,North,360,8.0,8.0,91,0.30,,,0.16,Wunderground v.1.15,2013-05-24 03:20:00,
2013-05-23 23:22:00,65.8,63.1,29.79,North,360,8.0,8.0,91,0.32,,,0.18,Wunderground v.1.15,2013-05-24 03:22:00,
2013-05-23 23:24:00,65.7,63.0,29.78,North,360,8.0,8.0,91,0.28,,,0.18,Wunderground v.1.15,2013-05-24 03:24:00,
2013-05-23 23:26:00,65.7,63.3,29.79,North,360,8.0,8.0,92,0.27,,,0.19,Wunderground v.1.15,2013-05-24 03:26:00,
2013-05-23 23:28:00,65.8,63.4,29.79,North,360,6.0,8.0,92,0.28,,,0.20,Wunderground v.1.15,2013-05-24 03:28:00,
2013-05-23 23:32:00,65.7,63.3,29.79,North,360,5.0,6.0,92,0.31,,,0.22,Wunderground v.1.15,2013-05-24 03:32:00,
2013-05-23 23:34:00,65.5,63.1,29.79,North,360,4.0,6.0,92,0.26,,,0.23,Wunderground v.1.15,2013-05-24 03:34:00,
2013-05-23 23:36:00,65.5,63.1,29.79,North,360,4.0,6.0,92,0.28,,,0.24,Wunderground v.1.15,2013-05-24 03:36:00,
2013-05-23 23:38:00,65.4,63.0,29.79,North,360,4.0,6.0,92,0.25,,,0.25,Wunderground v.1.15,2013-05-24 03:38:00,
2013-05-23 23:42:00,65.2,62.8,29.79,North,360,4.0,4.0,92,0.27,,,0.26,Wunderground v.1.15,2013-05-24 03:42:00,
2013-05-23 23:44:00,65.2,62.8,29.79,North,360,5.0,5.0,92,0.25,,,0.27,Wunderground v.1.15,2013-05-24 03:44:00,
2013-05-23 23:46:00,65.3,62.9,29.79,North,360,5.0,6.0,92,0.28,,,0.28,Wunderground v.1.15,2013-05-24 03:46:00,
2013-05-23 23:50:00,65.5,63.4,29.79,North,360,5.0,5.0,93,0.25,,,0.30,Wunderground v.1.15,2013-05-24 03:50:00,
2013-05-23 23:52:00,65.6,63.2,29.79,North,360,6.0,7.0,92,0.21,,,0.30,Wunderground v.1.15,2013-05-24 03:52:00,
2013-05-23 23:56:00,65.7,63.3,29.79,North,360,6.0,7.0,92,0.23,,,0.32,Wunderground v.1.15,2013-05-24 03:56:00,
2013-05-23 23:58:00,65.8,63.4,29.79,North,360,6.0,10.0,92,0.19,,,0.32,Wunderground v.1.15,2013-05-24 03:58:00,